Weather History for Arcata, CA

Change the Weather History Date:

Saturday, July 26, 2014

  Actual Average Record
Temperature  
Mean Temperature 58 °F -  
Max Temperature 64 °F 61 °F 69 °F (2005)
Min Temperature 51 °F 50 °F 43 °F (2001)
Degree Days  
Heating Degree Days 8    
Growing Degree Days 8 (Base 50)    
Moisture  
Dew Point 52 °F    
Average Humidity 82    
Maximum Humidity 93    
Minimum Humidity 67    
Precipitation  
Precipitation 0.00 in - - ()
Sea Level Pressure  
Sea Level Pressure 30.02 in    
Wind  
Wind Speed 4 mph (West)    
Max Wind Speed 10 mph    
Max Gust Speed -    
Visibility 10 miles    
Events      
Averages and records for this station are not official NWS values.
T = Trace of Precipitation, MM = Missing Value Source: NWS Daily Summary

Daily Weather History Graph

Daily Weather History Graph

Search for Another Location

Airport:

Trip Planner

Search our weather history database for the weather conditions in past years. The results will help you decide how hot, cold, wet, or windy it might be!

Date:

Astronomy

Jul. 26, 2014 Rise Set
Actual Time 6:06 AM PDT 8:38 PM PDT
Civil Twilight 5:35 AM PDT 9:09 PM PDT
Nautical Twilight 4:56 AM PDT 9:48 PM PDT
Astronomical Twilight 4:12 AM PDT 10:32 PM PDT
Moon 6:05 AM PDT (7/26) 8:15 PM PDT (7/26)
Length of Visible Light 15h 34m
Length of Day
14h 31m
Waning Crescent, 0% of the Moon is Illuminated
Jul 26
Waning Crescent
Jul 26
New
Aug 3
First Quarter
Aug 10
Full
Aug 17
Last Quarter

Hourly Weather History & Observations

Time (PDT) Temp. Dew Point Humidity Pressure Visibility Wind Dir Wind Speed Gust Speed Precip Events Conditions
12:53 AM 52.0 °F 48.0 °F 86% 30.05 in 10.0 mi ESE 3.5 mph - N/A   Clear
1:53 AM 51.1 °F 48.0 °F 89% 30.03 in 10.0 mi ESE 3.5 mph - N/A   Clear
2:34 AM 54.0 °F 51.1 °F 90% 30.00 in 10.0 mi SSE 6.9 mph - N/A   Mostly Cloudy
2:53 AM 55.0 °F 52.0 °F 89% 30.01 in 10.0 mi SSE 4.6 mph - N/A   Overcast
3:53 AM 53.1 °F 50.0 °F 89% 30.00 in 10.0 mi East 3.5 mph - N/A   Scattered Clouds
4:18 AM 51.1 °F 48.0 °F 89% 29.99 in 10.0 mi Calm Calm - N/A   Mostly Cloudy
4:53 AM 53.1 °F 50.0 °F 89% 30.00 in 10.0 mi Calm Calm - N/A   Overcast
6:53 AM 54.0 °F 52.0 °F 93% 30.02 in 10.0 mi Calm Calm - N/A   Overcast
8:53 AM 55.9 °F 52.0 °F 87% 30.03 in 10.0 mi Calm Calm - N/A   Overcast
9:14 AM 55.9 °F 52.0 °F 87% 30.02 in 7.0 mi WNW 3.5 mph - N/A   Overcast
9:30 AM 57.0 °F 52.0 °F 83% 30.02 in 8.0 mi Calm Calm - N/A   Overcast
11:53 AM 60.1 °F 53.1 °F 78% 30.04 in 10.0 mi Variable 6.9 mph - N/A   Mostly Cloudy
12:44 PM 61.0 °F 53.1 °F 75% 30.02 in 10.0 mi WNW 8.1 mph - N/A   Scattered Clouds
12:53 PM 61.0 °F 53.1 °F 75% 30.03 in 10.0 mi WNW 8.1 mph - N/A   Scattered Clouds
1:53 PM 61.0 °F 53.1 °F 75% 30.04 in 10.0 mi WNW 6.9 mph - N/A   Partly Cloudy
2:53 PM 62.1 °F 54.0 °F 75% 30.04 in 10.0 mi West 4.6 mph - N/A   Clear
3:53 PM 64.9 °F 54.0 °F 68% 30.03 in 10.0 mi WNW 6.9 mph - N/A   Clear
4:53 PM 64.0 °F 53.1 °F 67% 30.03 in 10.0 mi NW 10.4 mph - N/A   Clear
5:53 PM 62.1 °F 53.1 °F 72% 30.03 in 10.0 mi NW 10.4 mph - N/A   Clear
6:53 PM 61.0 °F 53.1 °F 75% 30.02 in 10.0 mi NW 6.9 mph - N/A   Clear
7:53 PM 59.0 °F 52.0 °F 78% 30.02 in 10.0 mi West 3.5 mph - N/A   Clear
8:53 PM 55.0 °F 51.1 °F 86% 30.02 in 8.0 mi South 5.8 mph - N/A   Clear
9:53 PM 55.0 °F 51.1 °F 86% 30.03 in 10.0 mi SSE 3.5 mph - N/A   Clear
10:53 PM 54.0 °F 51.1 °F 90% 30.01 in 10.0 mi ESE 3.5 mph - N/A   Clear
11:43 PM 55.0 °F 51.1 °F 86% 29.99 in 10.0 mi Calm Calm - N/A   Scattered Clouds
11:53 PM 55.0 °F 51.1 °F 86% 30.00 in 10.0 mi Calm Calm - N/A   Mostly Cloudy